Regional Weather Roundup
Issued by NWS

Home | Current Version | Previous Version | Graphics & Text | Print | Product List | Glossary On
Versions: 1 2 3 4 5 6 7 8 9 10 11 12 13 14 15 16 17 18 19 20 21 22 23 24 25 26 27 28 29 30 31 32 33 34 35 36 37 38 39 40 41 42 43 44 45 46 47 48 49 50
000
ASUS43 KIND 221259
RWRIN

WEATHER ROUNDUP FOR INDIANA
NATIONAL WEATHER SERVICE INDIANAPOLIS IN
900 AM EDT MON MAY 22 2017

NOTE: "FAIR" INDICATES FEW OR NO CLOUDS BELOW 12,000 FEET WITH NO
SIGNIFICANT WEATHER AND/OR OBSTRUCTIONS TO VISIBILITY.

* - STATION DOES NOT REPORT WEATHER SUCH AS PRECIPITATION OR FOG.

+ - STATION NOT QUALITY CONTROLLED BY THE NATIONAL WEATHER SERVICE.
    USE DATA WITH CAUTION...ESPECIALLY DEWPOINT AND RELATIVE
    HUMIDITY OBSERVATIONS.

INZ001>003-010>013-019-020-221400-
NORTHWEST INDIANA

CITY           SKY/WX    TMP DP  RH WIND       PRES   REMARKS
GARY /AIRPORT/ MOSUNNY   55  43  62 SW7       30.07S
MICHIGAN CITY+ SUNNY     54  43  66 SW8       30.06S
MONTICELLO +   SUNNY     54  45  70 W9        30.09S
RENSSELAER +   SUNNY     54  43  66 SW12      30.09S

$$

LMZ046-743>745-221400-
SOUTHERN LAKE MICHIGAN

STATION/POSITION TIME  TEMP    WIND        PRES    WAVE
                       AIR SEA DIR/SP/G            HT
                 (UTC) (F)     (DEG/KT/KT) (MB)    (FT)
BURNS HARBOR     1240   54     240/ 10/ 14 1018.3R
MICHIGAN CITY    1230   51     220/ 16/ 18   N/A
5NW MICH CITY    1250   51 52  240/ 12/ 16   N/A     3

$$

INZ004-005-014>016-021>024-221400-
NORTH CENTRAL INDIANA

CITY           SKY/WX    TMP DP  RH WIND       PRES   REMARKS
ELKHART        MOSUNNY   54  43  66 W10       30.05S
GOSHEN         SUNNY     54  42  64 W15G22    30.06R
SOUTH BEND     SUNNY     53  43  68 W15       30.06S

$$

INZ006>009-017-018-025>027-221400-
NORTHEAST INDIANA

CITY           SKY/WX    TMP DP  RH WIND       PRES   REMARKS
ANGOLA *+      PTSUNNY   54  43  66 W12       30.04R
FORT WAYNE     PTSUNNY   54  44  69 W17       30.08R
KENDALLVILLE + PTSUNNY   53  43  69 W17G26    30.05S

$$

INZ028-029-035-036-043>045-051>053-221400-
WEST CENTRAL INDIANA

CITY           SKY/WX    TMP DP  RH WIND       PRES   REMARKS
CRAWFORDSVL +  CLOUDY    53  47  82 W8        30.13R
GREENCASTLE +  CLOUDY    54  45  71 W3        30.15R
LAFAYETTE      SUNNY     54  46  74 W7        30.11R
TERRE HAUTE    CLOUDY    56  49  77 SW6       30.15R

$$

INZ030>032-037>040-046>048-054>057-064-065-221400-
CENTRAL INDIANA

CITY           SKY/WX    TMP DP  RH WIND       PRES   REMARKS
CP ATTERBURY + PTSUNNY   54  46  76 SW7       30.17R
COLUMBUS       SUNNY     54  45  71 SW7       30.17R
GREENWOOD *+   CLOUDY    54  44  68 W7        30.15R
INDIANAPOLIS   CLOUDY    54  45  71 W7        30.14R
-EAGLE CREEK   CLOUDY    56  44  64 VRB6      30.13R
KOKOMO +       SUNNY     54  45  71 W12       30.10F
SHELBYVILLE    PTSUNNY   56  44  64 W7        30.13R

$$

INZ033-034-041-042-049-050-058-059-221400-
EAST CENTRAL INDIANA

CITY           SKY/WX    TMP DP  RH WIND       PRES   REMARKS
MUNCIE         CLOUDY    56  44  64 W12       30.11R
RICHMOND +     CLOUDY    50  43  76 W8        30.14R

$$

INZ060-061-067>069-081>083-085>088-221400-
SOUTHWEST INDIANA

CITY           SKY/WX    TMP DP  RH WIND       PRES   REMARKS
EVANSVILLE     MOSUNNY   63  50  62 S3        30.18S
HUNTINGBURG *+ SUNNY     59  51  75 S3        30.19R

$$

INZ062-063-066-070>080-084-089>092-221400-
SOUTH CENTRAL AND SOUTHEAST INDIANA

CITY           SKY/WX    TMP DP  RH WIND       PRES   REMARKS
BLOOMINGTON    MOSUNNY   55  46  71 SW7       30.17R
MADISON *+     MOSUNNY   57  43  58 W5        30.20R
SEYMOUR +      MOSUNNY   61  46  59 W5        30.18R

$$





USA.gov is the U.S. government's official web portal to all federal, state and local government web resources and services.